CAPE
50 28 8 10 12 18 6 10 10 7 9 8 7 5 4 3 4 7 6 4 6 4 1 1 0 0 0 0 0 0 0 3 52 7 3 0 0 0 0 0 0 0 0
29 22 11 4 7 8 8 6 7 8 7 8 8 7 12 10 7 4 5 2 1 5 6 0 0 0 0 0 0 0 0 0 0 9 0 0 0 0 0 0 0 0 0
13 8 10 14 13 9 15 12 6 4 4 4 5 4 5 11 10 9 6 5 10 3 3 4 2 0 0 0 0 0 0 0 0 0 0 0 0 2 1 0 2 3 0
8 8 40 3 6 10 10 8 3 4 4 6 5 5 11 5 15 11 8 8 9 8 7 7 5 2 2 4 4 0 0 0 0 0 0 2 2 7 5 5 10 11 10
6 21 34 4 6 7 7 6 3 2 1 2 3 7 9 8 12 6 6 5 3 3 3 5 9 13 13 7 2 2 1 1 0 2 2 5 6 6 18 25 9 14 15
8 11 8 14 1 3 6 10 11 7 7 12 19 12 11 13 3 1 0 1 0 0 0 0 0 0 0 7 3 0 0 11 10 6 1 16 16 19 22 29 47 15 17
0 1 14 16 1 1 4 6 10 14 15 18 20 17 15 11 0 0 0 1 2 3 4 4 1 1 0 0 0 0 0 0 0 21 15 16 25 31 19 22 10 11 26
0 3 9 17 5 5 3 4 14 14 16 19 26 31 30 22 0 0 2 16 16 17 11 14 16 7 0 2 3 0 0 1 1 1 6 9 26 9 11 7 7 13 50
0 7 8 9 9 0 1 8 12 13 18 25 30 16 23 28 1 8 14 8 11 13 13 9 9 4 0 0 0 0 0 1 0 0 0 0 0 0 1 9 32 49 34
0 3 5 7 2 2 6 12 15 15 9 5 9 14 8 14 0 1 15 10 9 2 4 3 0 0 0 0 1 2 4 3 5 2 5 0 1 5 0 14 47 33 50
0 0 6 13 4 7 19 19 11 4 2 4 7 10 15 7 11 0 0 6 3 2 1 0 0 0 0 0 0 3 3 2 3 6 9 10 7 27 39 45 51 49 56
0 0 2 4 3 11 15 0 1 3 5 5 5 8 10 11 0 0 0 0 0 2 3 2 1 0 0 0 1 0 0 1 6 30 13 8 13 10 7 7 7 9 5
0 1 7 9 10 13 3 3 1 0 2 4 3 3 3 3 2 0 0 0 0 1 0 0 0 0 0 1 0 0 2 14 17 10 10 8 8 8 8 9 6 6 9
0 2 6 10 15 16 17 10 3 2 3 3 4 2 4 3 1 1 1 1 0 0 0 2 0 0 0 1 7 6 8 16 11 8 8 9 11 13 10 12 10 10 11
0 0 2 11 16 13 9 3 0 0 1 2 2 2 1 1 1 0 0 1 1 0 6 14 6 6 6 11 18 28 30 20 14 15 10 10 7 9 11 12 9 7 7
0 0 1 6 7 1 10 12 0 0 0 0 0 0 1 0 0 0 0 0 0 0 4 3 13 23 26 31 48 22 11 19 18 11 10 14 12 12 12 10 6 5 4
0 0 10 3 11 4 14 7 1 7 0 0 0 0 0 0 0 0 0 0 0 0 2 2 3 2 1 1 3 4 12 5 1 17 11 8 8 9 8 8 6 5 6
13 1 7 9 9 10 12 13 21 2 0 0 0 0 0 0 0 0 0 0 2 7 17 11 19 15 5 3 2 2 2 15 3 4 9 10 7 4 5 6 7 7 7
12 10 9 1 0 7 15 11 19 14 0 1 31 0 0 0 0 0 0 10 18 17 18 21 6 3 2 6 2 4 2 6 1 6 3 7 14 11 15 11 4 0 0
1 1 1 1 0 10 36 30 3 3 3 8 0 0 0 0 3 9 2 0 0 1 1 1 0 3 2 3 4 6 1 5 7 1 5 0 0 17 17 14 10 2 2
6 9 0 0 0 0 1 0 1 1 3 15 8 0 0 2 14 0 0 1 1 1 2 4 2 1 1 5 3 2 5 2 2 31 63 9 3 6 24 20 16 7 1
6 10 4 0 0 0 0 0 0 1 3 8 32 1 0 0 0 0 0 9 6 2 6 6 7 6 7 12 12 4 2 2 2 1 72 95 67 35 32 11 3 4 7
5 14 7 3 0 0 0 0 0 0 1 1 2 1 1 3 2 0 2 0 0 5 7 5 2 3 3 4 2 0 0 0 1 0 2 47 73 21 3 9 13 17 14
5 2 0 0 0 0 1 0 0 0 0 0 0 0 0 0 0 0 0 0 1 2 8 5 2 2 0 0 0 0 0 0 0 0 0 15 85 6 6 19 8 5 2
8 4 0 0 0 1 2 3 0 0 0 1 6 13 12 4 0 0 4 7 5 8 7 3 4 0 1 0 0 0 0 0 0 0 0 32 72 12 9 17 1 0 0
0 6 5 2 0 0 0 0 0 0 0 0 0 0 0 0 0 0 0 7 6 5 4 1 0 0 0 0 0 0 0 0 0 0 0 12 48 26 17 14 0 0 0
CIN
-83 -74 -76 0 0 0 0 0 0 0 0 0 0 0 0 0 0 0 0 0 0 0 0 0 0 0 0 0 0 0 0 -5 0 0 0 0 0 0 0 0 0 0 0
-57 -51 -1 0 0 0 0 0 0 0 0 0 0 0 0 0 0 0 0 0 0 0 0 0 0 0 0 0 0 0 0 0 0 0 0 0 0 0 0 0 0 0 0
0 0 -1 0 0 0 0 0 0 0 0 0 0 0 0 0 0 0 0 0 0 0 0 0 0 0 0 0 0 0 0 0 0 0 0 0 0 0 0 0 0 0 0
0 0 0 0 0 0 0 0 0 0 0 0 0 0 0 0 0 0 0 0 0 0 0 0 0 0 0 0 0 0 0 0 0 0 0 0 0 0 0 0 0 0 0
0 0 0 0 0 0 0 0 0 0 0 0 0 0 0 0 0 0 0 0 0 0 0 0 0 0 0 0 0 0 0 0 0 0 0 0 0 0 0 0 0 0 0
0 0 0 0 0 0 0 0 0 0 0 0 0 0 0 0 0 0 0 0 0 0 0 0 0 0 0 0 0 0 0 0 0 0 0 0 0 0 0 0 0 0 0
0 0 -2 0 0 0 0 0 0 0 0 0 0 0 0 0 0 0 0 0 0 0 0 0 0 0 0 0 0 0 0 0 0 0 0 0 0 0 0 -1 0 -2 0
0 -6 -22 -19 0 0 0 0 0 0 0 0 0 0 0 0 0 0 -1 0 0 0 0 0 0 0 0 0 0 0 0 0 0 0 0 -1 0 -1 0 0 0 0 0
0 -37 0 0 -2 0 0 0 0 0 0 0 0 -3 0 0 -3 -1 -1 0 0 0 0 0 0 0 0 0 0 0 0 0 0 0 0 0 0 0 0 0 0 0 0
0 0 0 0 0 0 0 0 0 0 -1 -3 -1 -5 0 0 0 -13 -3 0 0 0 0 0 0 0 0 0 0 0 0 0 0 0 0 0 0 0 0 -4 0 0 0
0 0 0 0 0 0 0 0 0 -1 0 0 0 -2 0 0 0 0 0 0 0 0 0 0 0 0 0 0 0 0 0 0 0 0 0 0 0 -2 0 0 0 0 0
0 0 0 0 0 0 0 0 0 0 0 0 0 0 0 0 0 0 0 0 -1 0 0 0 0 0 0 0 0 0 0 -1 0 0 0 0 0 0 0 0 0 0 0
0 0 0 0 0 0 -4 -1 0 0 0 0 0 0 0 0 0 0 0 0 0 0 0 0 0 0 0 -1 0 0 -1 0 0 0 0 0 0 0 0 0 0 0 0
0 0 0 0 0 0 -1 0 0 0 0 0 0 0 0 0 0 0 0 0 0 0 0 0 0 0 0 0 0 0 0 0 0 0 0 0 0 0 0 0 0 0 0
0 0 -3 0 0 0 0 0 0 0 0 0 0 0 0 0 0 0 0 0 0 0 0 -5 -2 0 0 0 0 0 0 0 0 0 0 0 0 0 0 0 0 0 0
0 0 -6 -3 -5 -4 0 -1 0 0 0 0 0 0 0 0 0 0 0 0 0 0 0 -2 0 0 0 0 0 -1 0 0 0 0 0 0 0 0 0 0 0 0 0
0 -2 0 -5 -4 -4 0 0 -9 0 0 0 0 0 0 0 0 0 0 0 0 0 0 0 0 0 0 0 0 0 0 0 0 0 0 0 0 0 0 0 0 0 0
0 -6 0 -5 -8 -1 0 0 0 -1 0 0 0 0 0 0 0 0 0 -5 -2 -1 -7 -5 -1 -3 0 0 0 0 0 0 0 0 0 0 0 0 0 0 0 0 0
0 0 -7 -24 0 -1 0 -1 -1 -1 0 -2 0 0 0 0 0 0 0 -1 0 -2 -3 -4 -4 0 0 0 0 0 0 0 0 0 0 0 0 0 0 0 0 0 0
0 -2 -3 -25 0 -6 0 -1 -5 0 -9 -2 -2 0 0 -1 -20 -7 0 0 0 0 0 0 0 0 0 0 0 0 0 0 -5 0 -1 0 0 0 0 0 0 0 0
0 0 0 -30 0 -9 -19 -2 0 0 0 -3 0 0 0 -8 -1 0 0 0 0 0 0 0 0 0 0 0 0 0 0 0 0 0 0 -15 0 -3 -1 0 0 0 0
0 0 -21 0 -11 -4 0 0 0 0 0 -4 0 -2 0 0 0 0 0 0 0 0 0 0 0 0 0 0 0 0 0 0 0 0 0 0 0 0 -2 -1 0 0 0
0 0 -19 -28 -12 0 0 0 0 0 0 0 0 0 0 0 0 0 0 0 0 0 0 0 0 0 0 0 0 0 0 0 0 0 0 -9 0 -9 -24 -24 -1 0 0
0 -11 -20 0 0 0 -23 0 -3 0 0 0 0 0 0 0 0 0 0 0 0 0 0 0 0 0 0 0 0 0 0 0 0 0 0 -50 0 -29 -31 -6 -9 0 0
0 -1 -1 0 0 -35 -30 -16 0 0 0 0 0 0 0 0 0 0 0 0 0 0 0 -2 -3 -1 0 0 0 0 0 0 0 0 0 -40 -6 -40 -29 -3 -3 0 0
0 0 -1 -5 0 0 0 -1 0 0 0 0 0 0 0 0 0 0 -3 -1 0 0 0 -9 0 0 0 0 0 0 0 0 0 0 0 -53 -20 -25 -16 -6 -2 0 0
Wind_Speed
13 13 15 16 17 14 11 12 13 12 13 12 12 10 10 10 9 8 8 9 9 6 8 9 11 10 8 7 7 7 6 5 3 4 3 5 3 6 6 6 5 6 5
11 12 14 13 12 11 10 11 11 11 12 13 13 13 12 12 10 10 11 11 14 14 13 14 13 8 11 9 7 9 8 7 5 1 4 3 5 6 7 6 6 5 7
12 11 10 13 12 12 12 13 12 11 13 13 13 14 13 12 11 12 12 11 16 13 12 11 10 9 10 9 9 7 5 5 4 2 2 3 3 5 4 3 5 7 6
11 12 10 10 10 10 11 13 14 13 15 14 15 15 15 12 10 10 11 12 12 12 12 9 8 8 6 6 6 6 5 4 5 3 3 3 3 4 4 5 5 6 5
12 13 12 7 8 9 10 11 13 13 12 12 12 13 14 13 10 11 11 10 10 11 10 9 7 11 13 7 3 5 4 4 4 5 4 5 4 3 5 5 4 7 2
11 13 11 8 9 9 11 13 13 14 15 15 15 15 15 10 21 20 13 9 9 7 5 6 8 9 11 11 8 9 7 5 6 4 3 3 4 3 4 4 4 3 2
9 11 10 9 9 9 9 12 14 14 14 15 15 15 15 14 18 15 14 8 9 10 10 9 7 6 6 6 7 5 7 5 5 2 1 1 2 4 4 4 4 3 2
11 11 11 8 8 9 13 12 12 12 13 13 14 14 13 13 17 13 9 10 9 10 9 8 8 9 9 7 6 5 4 4 2 2 3 3 5 4 3 3 5 6 3
11 11 10 10 10 10 11 12 11 10 11 11 11 12 11 11 17 14 8 8 8 9 9 10 8 9 9 9 6 5 4 3 2 3 4 5 7 6 6 4 3 0 1
11 10 9 9 9 9 9 11 10 9 10 8 10 10 13 10 15 14 10 6 8 7 7 8 12 9 8 7 5 5 5 5 4 1 3 2 5 4 3 3 2 2 2
9 9 10 9 8 8 9 9 9 9 8 9 9 9 10 12 12 14 15 9 7 7 7 6 5 10 10 9 6 4 4 4 4 3 2 3 2 2 1 4 4 4 4
9 11 12 11 9 8 10 9 10 9 8 8 9 8 9 11 12 12 12 11 10 7 6 5 6 10 7 7 5 6 6 3 3 4 4 3 3 3 2 3 4 4 3
10 11 11 11 9 8 9 9 7 8 7 8 6 6 6 5 7 11 10 11 10 6 5 6 7 7 7 7 11 10 6 4 3 3 4 4 3 2 1 2 3 4 6
9 8 9 9 9 9 7 8 8 8 8 8 8 7 7 6 6 6 6 6 8 7 8 6 7 7 7 5 6 6 5 6 4 4 4 3 2 3 3 2 2 2 5
8 6 7 8 8 8 7 8 7 6 5 6 5 5 6 7 5 6 6 6 6 5 3 6 7 7 7 6 5 6 6 6 5 4 4 4 3 3 4 3 4 4 5
6 4 5 5 5 5 6 6 5 5 7 7 7 8 5 9 12 11 10 12 11 11 7 6 7 7 7 7 7 5 5 6 5 4 4 4 4 4 4 5 4 4 4
5 4 5 4 4 5 6 7 6 6 4 8 12 10 11 8 12 13 12 9 11 8 5 5 5 5 4 4 4 5 6 4 4 6 5 4 5 5 5 5 4 4 5
6 3 5 5 5 5 6 6 6 6 8 7 7 9 13 12 12 13 12 5 8 8 8 8 8 7 5 5 4 4 4 4 4 4 5 5 5 4 5 5 4 4 5
6 7 5 5 6 5 5 5 7 7 5 7 8 10 9 10 8 9 11 10 10 10 9 10 7 7 9 8 4 6 4 4 3 3 3 4 4 4 5 4 5 5 5
7 5 6 5 5 6 6 7 6 6 5 6 6 6 8 8 10 10 10 10 10 9 9 9 9 9 8 7 8 6 5 5 3 1 2 1 2 3 4 4 4 4 4
5 6 5 5 5 6 5 6 5 5 5 5 6 8 6 8 9 9 8 8 8 8 9 9 9 10 10 9 7 8 7 5 5 4 2 1 1 0 2 4 4 5 5
5 5 5 5 4 5 5 5 6 6 6 6 6 7 7 7 7 7 7 7 8 7 6 8 9 9 10 9 9 7 8 7 6 5 5 2 2 2 2 4 5 5 5
4 6 5 4 4 5 5 5 6 6 7 7 7 8 7 7 7 7 7 8 8 9 8 8 9 10 10 9 9 6 7 8 7 5 5 5 3 3 3 4 4 6 6
5 6 5 4 5 4 5 5 5 6 6 6 6 5 6 5 6 7 8 8 8 8 9 8 9 12 11 11 10 9 9 9 6 7 6 4 2 4 4 4 5 7 8
3 4 5 4 4 4 5 5 5 6 6 6 6 5 5 7 7 7 8 9 8 8 9 9 9 12 14 16 17 16 14 10 9 7 5 3 4 5 3 4 6 7 7
2 3 4 4 4 4 4 4 5 5 5 5 5 6 7 8 9 9 10 9 9 9 10 8 11 15 15 14 17 15 13 13 12 10 6 2 3 4 4 5 6 5 5
Wind_Direction
359 359 355 353 350 4 9 357 353 355 356 8 13 21 21 15 1 358 41 41 44 50 64 65 54 39 53 51 57 53 48 4 292 127 77 66 53 7 11 5 354 337 324
2 360 2 2 2 9 4 10 7 6 10 15 22 24 25 33 28 43 51 58 75 47 38 49 53 49 52 42 50 50 42 34 352 1 35 32 27 7 4 350 347 344 328
6 359 8 14 14 12 10 17 12 12 15 18 23 26 24 28 42 48 57 61 74 71 71 41 45 40 43 46 42 39 31 38 40 4 48 22 27 20 350 352 339 329 306
1 1 34 33 16 6 8 22 23 18 19 18 23 24 26 24 42 51 55 56 56 60 63 63 59 66 63 53 45 59 53 53 60 53 55 45 14 34 339 354 349 346 328
8 16 16 49 35 16 19 17 21 24 23 25 22 34 34 34 37 54 60 61 62 60 51 44 38 53 63 73 74 69 68 60 62 54 49 43 33 6 34 34 335 326 13
18 23 15 48 44 24 19 24 25 26 26 29 33 42 43 40 52 61 62 56 54 55 57 65 64 52 54 57 92 59 49 69 78 65 59 32 61 24 12 348 336 355 343
12 17 22 36 44 34 29 26 29 30 32 35 36 37 42 40 38 48 59 61 51 44 49 57 60 64 65 85 78 80 70 34 3 354 69 9 355 31 353 330 330 305 316
26 23 25 31 58 35 31 32 33 36 37 37 36 36 39 38 23 20 25 51 57 62 58 60 63 63 45 43 50 37 11 348 338 308 295 316 279 307 307 303 304 308 288
25 28 20 24 49 40 34 29 32 33 33 35 35 28 26 31 16 18 16 45 59 66 60 49 51 53 32 20 23 4 7 21 357 289 296 291 277 276 272 288 280 295 91
28 24 25 40 55 47 35 40 37 35 32 26 23 27 24 24 19 15 14 61 61 68 59 56 45 22 10 10 3 353 8 16 14 101 163 215 223 173 257 295 329 322 309
39 38 40 47 52 37 46 38 29 28 28 20 22 24 33 29 38 21 10 53 52 55 47 36 23 2 3 1 355 3 357 337 42 64 76 130 183 200 41 7 9 349 328
51 54 52 53 53 57 49 33 27 20 18 11 13 18 18 26 25 41 26 24 6 44 30 13 2 356 1 8 35 29 28 33 51 55 59 54 76 88 80 72 56 53 40
62 62 65 62 56 46 40 32 19 9 9 12 12 11 10 9 7 7 26 13 19 25 18 7 6 11 26 53 32 26 28 34 42 59 68 65 45 52 110 100 82 71 62
70 60 64 59 53 46 40 41 30 15 10 13 14 14 7 12 13 3 11 15 13 28 18 22 20 23 36 36 33 41 40 57 48 47 47 41 31 53 63 54 63 72 63
82 69 58 58 42 36 42 26 21 31 9 1 4 0 1 10 353 2 12 21 19 359 31 55 47 36 38 35 37 41 44 57 49 60 53 56 50 51 56 56 61 67 71
90 66 46 31 34 29 24 52 70 22 7 16 17 21 35 23 13 21 24 27 19 360 44 30 29 33 36 32 41 42 30 41 61 53 49 48 67 62 63 62 61 58 63
105 78 57 9 28 33 31 35 18 41 59 32 17 21 20 11 15 19 11 17 27 21 28 10 10 11 9 12 11 18 37 28 22 46 57 49 50 56 52 58 56 59 65
101 30 61 33 36 43 48 30 35 37 13 13 0 4 9 7 10 17 4 28 39 37 35 21 14 14 13 6 352 355 4 35 24 31 48 60 58 50 54 52 50 57 69
92 70 51 55 47 24 47 44 31 36 22 24 20 18 8 348 7 32 11 37 35 32 27 28 26 12 12 6 1 359 334 0 358 23 23 38 64 60 67 75 73 51 60
89 50 51 59 50 40 38 48 39 32 23 40 27 5 352 24 37 31 38 30 27 24 23 22 15 10 18 7 357 7 350 357 349 329 358 44 3 44 82 78 80 80 62
91 87 56 63 52 43 42 34 29 32 29 29 44 21 334 23 37 40 24 34 24 19 15 12 14 11 9 9 13 357 360 1 344 357 14 201 211 96 347 82 106 104 99
84 83 59 69 50 47 33 32 28 32 34 32 39 41 357 44 42 33 24 20 23 11 10 10 9 14 10 3 358 0 349 352 357 344 348 45 92 80 84 87 96 109 129
98 81 73 63 43 34 42 42 37 32 41 36 35 36 22 29 25 13 7 6 3 6 11 11 12 8 8 7 6 2 348 340 331 322 318 340 83 111 101 77 91 114 115
98 80 71 59 47 52 44 49 42 49 38 40 35 21 27 12 12 7 5 3 3 3 8 10 10 12 5 7 9 0 360 346 316 313 309 297 99 123 122 112 98 101 102
94 79 73 60 49 39 38 42 36 35 26 22 20 13 11 17 15 6 359 4 3 3 7 6 8 3 8 7 5 360 348 333 332 314 298 293 121 139 129 110 118 115 120
67 17 31 46 57 52 41 36 29 23 20 20 16 11 4 0 357 359 360 1 357 359 1 4 3 356 4 6 1 340 342 342 344 333 318 14 136 146 154 136 142 140 144